BAW2159 TLPL-TGPY

Flight info

Callsign BAW2159
Flight time 0h 28m
Altitude 16000
Route DCT BNE A324 GND DCT
Aircraft B772/H-SDE1E3FGHIJ3J4J5J6M1M2P2RWXYZ/LB1D1

Departure

Time 2026-04-24 21:27
Airport Hewanorra International Airport (TLPL)

Arrival

Time 2026-04-24 21:56
Airport Maurice Bishop International Airport (TGPY)
Time Latitude Longitude Altitude Speed Heading
2026-04-24 20:57 13.73645 -60.94808 23 ft 0 kts 360°
2026-04-24 21:17 13.73625 -60.94807 25 ft 4 kts 359°
2026-04-24 21:17 13.73598 -60.94806 29 ft 4 kts 355°
2026-04-24 21:17 13.73579 -60.94803 27 ft 2 kts 332°
2026-04-24 21:17 13.73570 -60.94797 29 ft 2 kts 297°
2026-04-24 21:18 13.73566 -60.94786 29 ft 2 kts 277°
2026-04-24 21:18 13.73565 -60.94775 29 ft 2 kts 271°
2026-04-24 21:18 13.73565 -60.94768 28 ft 0 kts 270°
2026-04-24 21:20 13.73564 -60.94808 26 ft 5 kts 269°
2026-04-24 21:20 13.73548 -60.94848 26 ft 7 kts 230°
2026-04-24 21:20 13.73520 -60.94899 25 ft 11 kts 260°
2026-04-24 21:21 13.73519 -60.94975 23 ft 11 kts 270°
2026-04-24 21:21 13.73518 -60.95052 23 ft 11 kts 269°
2026-04-24 21:21 13.73510 -60.95125 27 ft 11 kts 243°
2026-04-24 21:21 13.73445 -60.95152 24 ft 11 kts 181°
2026-04-24 21:22 13.73372 -60.95157 25 ft 11 kts 197°
2026-04-24 21:22 13.73340 -60.95220 27 ft 11 kts 265°
2026-04-24 21:22 13.73338 -60.95296 28 ft 11 kts 270°
2026-04-24 21:22 13.73338 -60.95372 28 ft 11 kts 270°
2026-04-24 21:23 13.73338 -60.95448 28 ft 11 kts 270°
2026-04-24 21:23 13.73338 -60.95523 28 ft 11 kts 270°
2026-04-24 21:23 13.73337 -60.95598 28 ft 11 kts 269°
2026-04-24 21:23 13.73336 -60.95691 28 ft 17 kts 269°
2026-04-24 21:24 13.73336 -60.95816 27 ft 17 kts 271°
2026-04-24 21:24 13.73337 -60.95941 28 ft 17 kts 270°
2026-04-24 21:24 13.73338 -60.96066 28 ft 17 kts 270°
2026-04-24 21:24 13.73339 -60.96191 28 ft 17 kts 270°
2026-04-24 21:25 13.73340 -60.96316 28 ft 17 kts 270°
2026-04-24 21:25 13.73339 -60.96430 27 ft 10 kts 269°
2026-04-24 21:25 13.73368 -60.96495 24 ft 10 kts 300°
2026-04-24 21:25 13.73355 -60.96521 24 ft 3 kts 186°
2026-04-24 21:26 13.73343 -60.96501 25 ft 3 kts 110°
2026-04-24 21:26 13.73340 -60.96480 25 ft 0 kts 92°
2026-04-24 21:26 13.73338 -60.96407 27 ft 34 kts 90°
2026-04-24 21:27 13.73338 -60.95851 29 ft 119 kts 90°
2026-04-24 21:27 13.73321 -60.94822 445 ft 152 kts 93°
2026-04-24 21:27 13.73333 -60.93727 1480 ft 154 kts 90°
2026-04-24 21:27 13.73344 -60.92550 1969 ft 179 kts 90°
2026-04-24 21:28 13.73308 -60.91166 2178 ft 208 kts 102°
2026-04-24 21:28 13.72491 -60.89852 2423 ft 242 kts 141°
2026-04-24 21:28 13.70881 -60.89229 3154 ft 256 kts 173°
2026-04-24 21:28 13.69099 -60.89535 3981 ft 266 kts 202°
2026-04-24 21:29 13.67487 -60.90521 4804 ft 274 kts 213°
2026-04-24 21:29 13.65950 -60.91695 5698 ft 277 kts 216°
2026-04-24 21:29 13.64418 -60.92903 6589 ft 278 kts 216°
2026-04-24 21:29 13.62879 -60.94107 7445 ft 279 kts 216°
2026-04-24 21:30 13.61317 -60.95314 8255 ft 281 kts 216°
2026-04-24 21:30 13.59744 -60.96513 9104 ft 283 kts 217°
2026-04-24 21:30 13.58151 -60.97717 9905 ft 285 kts 217°
2026-04-24 21:30 13.56524 -60.98938 10463 ft 298 kts 217°
2026-04-24 21:31 13.54769 -61.00249 10731 ft 324 kts 217°
2026-04-24 21:31 13.52924 -61.01620 11588 ft 328 kts 216°
2026-04-24 21:31 13.51096 -61.02976 12644 ft 329 kts 216°
2026-04-24 21:31 13.49230 -61.04359 13734 ft 330 kts 216°
2026-04-24 21:32 13.47359 -61.05745 14700 ft 333 kts 216°
2026-04-24 21:32 13.45458 -61.07153 15478 ft 342 kts 216°
2026-04-24 21:32 13.43513 -61.08593 15902 ft 346 kts 216°
2026-04-24 21:32 13.41551 -61.10045 15935 ft 346 kts 216°
2026-04-24 21:33 13.39610 -61.11476 15947 ft 345 kts 215°
2026-04-24 21:33 13.37555 -61.12767 15945 ft 344 kts 208°
2026-04-24 21:33 13.35384 -61.13784 15944 ft 340 kts 202°
2026-04-24 21:33 13.33164 -61.14702 15948 ft 347 kts 202°
2026-04-24 21:34 13.30933 -61.15615 15940 ft 343 kts 202°
2026-04-24 21:34 13.28713 -61.16526 15937 ft 344 kts 202°
2026-04-24 21:34 13.26500 -61.17440 15943 ft 348 kts 202°
2026-04-24 21:34 13.24270 -61.18364 15936 ft 345 kts 202°
2026-04-24 21:35 13.22030 -61.19296 15941 ft 348 kts 202°
2026-04-24 21:35 13.19806 -61.20223 15941 ft 345 kts 202°
2026-04-24 21:35 13.17567 -61.21155 15945 ft 348 kts 202°
2026-04-24 21:35 13.15332 -61.22085 15936 ft 343 kts 202°
2026-04-24 21:36 13.13134 -61.23045 15937 ft 345 kts 205°
2026-04-24 21:36 13.10948 -61.24099 15940 ft 347 kts 206°
2026-04-24 21:36 13.08775 -61.25177 15938 ft 346 kts 206°
2026-04-24 21:36 13.06605 -61.26261 15945 ft 347 kts 206°
2026-04-24 21:37 13.04448 -61.27336 15937 ft 344 kts 206°
2026-04-24 21:37 13.02272 -61.28417 15943 ft 347 kts 206°
2026-04-24 21:37 13.00135 -61.29475 15937 ft 344 kts 206°
2026-04-24 21:37 12.97959 -61.30550 15943 ft 348 kts 206°
2026-04-24 21:38 12.95796 -61.31618 15930 ft 344 kts 206°
2026-04-24 21:38 12.93621 -61.32690 15940 ft 349 kts 206°
2026-04-24 21:38 12.91457 -61.33756 15930 ft 341 kts 206°
2026-04-24 21:38 12.89319 -61.34809 15936 ft 345 kts 206°
2026-04-24 21:39 12.87132 -61.35886 15935 ft 346 kts 206°
2026-04-24 21:39 12.84978 -61.36946 15927 ft 342 kts 206°
2026-04-24 21:39 12.82841 -61.37997 15935 ft 348 kts 206°
2026-04-24 21:39 12.80648 -61.39076 15928 ft 343 kts 206°
2026-04-24 21:40 12.78523 -61.40121 15935 ft 344 kts 206°
2026-04-24 21:40 12.76345 -61.41193 15938 ft 348 kts 206°
2026-04-24 21:40 12.74177 -61.42259 15928 ft 341 kts 206°
2026-04-24 21:40 12.72015 -61.43322 15936 ft 348 kts 206°
2026-04-24 21:41 12.69831 -61.44396 15931 ft 346 kts 206°
2026-04-24 21:41 12.67662 -61.45462 15930 ft 347 kts 206°
2026-04-24 21:41 12.65498 -61.46525 15934 ft 347 kts 206°
2026-04-24 21:41 12.63331 -61.47591 15915 ft 334 kts 205°
2026-04-24 21:42 12.61288 -61.48594 15798 ft 328 kts 206°
2026-04-24 21:42 12.59216 -61.49612 15408 ft 329 kts 206°
2026-04-24 21:42 12.57158 -61.50622 15043 ft 326 kts 206°
2026-04-24 21:42 12.55142 -61.51612 14640 ft 324 kts 206°
2026-04-24 21:43 12.53083 -61.52623 14241 ft 324 kts 206°
2026-04-24 21:43 12.51064 -61.53614 13823 ft 323 kts 206°
2026-04-24 21:43 12.49056 -61.54600 13315 ft 325 kts 206°
2026-04-24 21:43 12.47019 -61.55600 12869 ft 323 kts 206°
2026-04-24 21:44 12.45099 -61.56733 12450 ft 317 kts 220°
2026-04-24 21:44 12.43594 -61.58339 12066 ft 311 kts 229°
2026-04-24 21:44 12.42183 -61.60027 11664 ft 310 kts 229°
2026-04-24 21:44 12.40798 -61.61687 11266 ft 310 kts 229°
2026-04-24 21:45 12.39390 -61.63361 10858 ft 311 kts 229°
2026-04-24 21:45 12.37970 -61.65038 10452 ft 312 kts 228°
2026-04-24 21:45 12.36556 -61.66699 10250 ft 304 kts 228°
2026-04-24 21:45 12.35187 -61.68301 10111 ft 298 kts 228°
2026-04-24 21:46 12.33818 -61.69898 9860 ft 299 kts 228°
2026-04-24 21:46 12.32449 -61.71494 9489 ft 298 kts 227°
2026-04-24 21:46 12.31082 -61.73086 9108 ft 296 kts 228°
2026-04-24 21:46 12.29729 -61.74663 8749 ft 294 kts 227°
2026-04-24 21:47 12.28381 -61.76232 8399 ft 292 kts 227°
2026-04-24 21:47 12.27499 -61.77258 8162 ft 290 kts 227°
2026-04-24 21:47 12.25737 -61.79307 7709 ft 288 kts 227°
2026-04-24 21:47 12.24416 -61.80844 7366 ft 287 kts 227°
2026-04-24 21:48 12.23102 -61.82374 7040 ft 286 kts 227°
2026-04-24 21:48 12.21790 -61.83900 6702 ft 285 kts 227°
2026-04-24 21:48 12.20481 -61.85426 6347 ft 285 kts 227°
2026-04-24 21:48 12.19174 -61.86949 5990 ft 285 kts 227°
2026-04-24 21:49 12.17868 -61.88471 5647 ft 284 kts 226°
2026-04-24 21:49 12.16568 -61.89985 5301 ft 283 kts 227°
2026-04-24 21:49 12.15268 -61.91500 4964 ft 282 kts 226°
2026-04-24 21:49 12.13974 -61.93006 4634 ft 282 kts 227°
2026-04-24 21:50 12.12681 -61.94510 4287 ft 280 kts 227°
2026-04-24 21:50 12.11381 -61.95973 3948 ft 273 kts 220°
2026-04-24 21:50 12.09780 -61.96876 3616 ft 265 kts 192°
2026-04-24 21:50 12.07991 -61.97051 3448 ft 253 kts 177°
2026-04-24 21:51 12.06257 -61.97051 3323 ft 245 kts 177°
2026-04-24 21:51 12.04574 -61.97053 3206 ft 239 kts 177°
2026-04-24 21:51 12.02942 -61.97011 3094 ft 226 kts 167°
2026-04-24 21:51 12.01603 -61.96363 2999 ft 207 kts 133°
2026-04-24 21:52 12.00807 -61.95200 2846 ft 196 kts 114°
2026-04-24 21:52 12.00458 -61.93906 2690 ft 186 kts 94°
2026-04-24 21:52 12.00430 -61.92595 2457 ft 183 kts 89°
2026-04-24 21:52 12.00435 -61.91300 2212 ft 181 kts 90°
2026-04-24 21:53 12.00437 -61.90016 1978 ft 180 kts 90°
2026-04-24 21:53 12.00437 -61.88763 1798 ft 175 kts 90°
2026-04-24 21:53 12.00439 -61.87551 1624 ft 171 kts 90°
2026-04-24 21:53 12.00439 -61.86334 1314 ft 166 kts 91°
2026-04-24 21:54 12.00435 -61.85218 1097 ft 150 kts 90°
2026-04-24 21:54 12.00431 -61.84206 889 ft 137 kts 90°
2026-04-24 21:54 12.00428 -61.83248 722 ft 131 kts 91°
2026-04-24 21:54 12.00425 -61.82344 633 ft 126 kts 92°
2026-04-24 21:55 12.00412 -61.81429 402 ft 132 kts 92°
2026-04-24 21:55 12.00428 -61.80504 223 ft 127 kts 91°
2026-04-24 21:55 12.00416 -61.79587 63 ft 129 kts 92°
2026-04-24 21:55 12.00409 -61.78743 50 ft 102 kts 91°
2026-04-24 21:56 12.00407 -61.78175 49 ft 58 kts 91°
2026-04-24 21:56 12.00404 -61.77922 50 ft 13 kts 90°
2026-04-24 21:56 12.00383 -61.77847 48 ft 12 kts 98°
2026-04-24 21:56 12.00398 -61.77806 46 ft 0 kts 44°
2026-04-24 21:57 12.00404 -61.77805 47 ft 2 kts 15°
2026-04-24 21:57 12.00416 -61.77830 49 ft 10 kts 277°
2026-04-24 21:57 12.00405 -61.77958 50 ft 23 kts 270°
2026-04-24 21:57 12.00405 -61.78120 49 ft 23 kts 270°
2026-04-24 21:58 12.00405 -61.78281 48 ft 23 kts 270°
2026-04-24 21:58 12.00407 -61.78440 48 ft 23 kts 271°
2026-04-24 21:58 12.00412 -61.78569 49 ft 14 kts 287°
2026-04-24 21:58 12.00477 -61.78602 48 ft 5 kts 359°
2026-04-24 21:59 12.00514 -61.78602 47 ft 5 kts 359°
2026-04-24 21:59 12.00526 -61.78602 47 ft 0 kts 359°
2026-04-24 21:59 12.00527 -61.78602 47 ft 1 kts 359°
2026-04-24 22:00 12.00562 -61.78609 47 ft 7 kts 334°
2026-04-24 22:00 12.00599 -61.78638 46 ft 7 kts 331°
2026-04-24 22:00 12.00628 -61.78645 46 ft 0 kts 352°
2026-04-24 22:01 12.00647 -61.78647 46 ft 3 kts 358°
2026-04-24 22:01 12.00659 -61.78647 47 ft 0 kts 358°